Showing default

COSMOS 2166, 21780

Orbit data source: Space-Track

COSMOS 2166, 21780 is a payload satellite owned by UNKS RF (CIS) in LEO that was launched on Tue, 12 Nov 1991 UTC via a TSIKLON-3 launch vehicle from the Plesetsk Missile And Space Complex (PKMTR). Payloads include a variety of satellites, spacecraft, and rockets equipped with specific instruments for various scientific and technological missions. These include communications satellites like Starlink; space stations such as the ISS; scientific satellites like the Hubble; Earth observation satellites from companies like Planet Labs, Umbra, and HawkEye 360; GPS; miniature CubeSats for education and research; and military/defense satellites.

Loading next visibility...
COSMOS 2166 details
Identifier
21780, 1991-077B
Orbit
LEO
Last TLE update9 hours ago
Origin
Flag of CISUNKS RF (CIS)
ManufacturerNPO PM
MissionDefense Communications
Bus & MotorSTRELA-3, Unknown motor
Mass225 kg wet, 225 kg dry
Launch date (UTC)
1991-11-12 (33 years ago)
Launch vehicle
TSIKLON-3
Launch site
Plesetsk Missile And Space Complex (PKMTR)
Object type
Payload
Rocket body
Debris
Shape & HBRCyl, 1.6 m
Radar Cross Section1.257 m², Large (>1 m²)

Expand to show TLE details & history

TLE from 9 hours ago
0 COSMOS 2166
1 21780U 91077B   24361.57969591  .00000043  00000-0  17849-3 0  9998
2 21780  82.5981 229.0918 0002916 311.4650  73.1563 12.63428699527281
Epoch: 2024-12-26T13:54Z
Definitive object data (Epoch: 2024-12-26T13:54:45.726Z)
Latitude24.45812°
Longitude-71.785°
Altitude1,410.98 km
Speed7.157 km/s
True Right ascension15h 29m 51s
True Declination24° 20' 23"
Sunlit
Object was in daylight at TLE epoch
Visualization TLE readout
Latitude-3.05293°
Longitude-75.79937°
Altitude1,410.44 km
Speed7.156 km/s
Apparent Right ascension13h 31m 50s
Apparent Declination-22° 55' 49"
Sunlit
Object is in daylight
Visualization observer readout
Local Sidereal Time22:39:28
Azimuth281.911° WNW
Elevation-49.981°
Doppler factor1
Orbital elements
Apogee altitude1,408.413 km
Perigee altitude1,403.873 km
Semi-major axis7,784.28 km
Eccentricity0.0002916
Inclination82.5981°
RAAN229.0918°
Arg. of periapsis311.465°
True anomaly73.18828°
Mean anomaly73.1563°
Eccentric anomaly73.17229°
Mean motion3.16021 °/min
BSTAR0.00017849
Orbital period113.92 mins
Loading maneuver chart data...
Loading historical data...
Loading historical data...
Loading historical data...
Loading historical data...
Loading historical data...
Loading historical data...
Loading historical data...

COSMOS 2166 Visibility forecast

Observer location: undefined°, undefined

Span
Click to sort rows by Start time (UTC) header in descending order
Start Az.
Max El. time (UTC)
Max El. Az.
Max El.
End time (UTC)
End Az.
12 mins2024-12-27 01:48:10.974Z18.783° NNE2024-12-27 01:54:10.974Z69.773° E23.207°2024-12-27 02:00:10.974Z118.834° SE
14 mins2024-12-27 03:43:10.974Z344.292° N2024-12-27 03:49:10.974Z281.752° WNW42.321°2024-12-27 03:57:10.974Z188.6° SSW
11 mins2024-12-27 14:37:10.974Z124.883° SE2024-12-27 14:42:10.974Z82.294° E22.491°2024-12-27 14:48:10.974Z33.712° NE
15 mins2024-12-27 16:29:10.974Z199.92° SSW2024-12-27 16:36:10.974Z272.053° WNW42.373°2024-12-27 16:44:10.974Z1.664° NNE
|